{"data":{"norad_id":40014,"epoch":"2026-05-25T04:34:09.295104Z","epoch_age_seconds":51834,"freshness":"FRESH","line1":"1 40014U 14033E   26145.19038536  .00005302  00000+0  28309-3 0  9997","line2":"2 40014  98.0414 236.3999 0026902 258.6548 101.1660 15.15301772652353","mean_motion":15.15301772,"eccentricity":0.0026902,"inclination_deg":98.0414,"raan_deg":236.3999,"arg_perigee_deg":258.6548,"mean_anomaly_deg":101.166,"bstar":0.00028309,"rev_number":65235,"period_min":95.030575863406,"perigee_km":501.50502166025,"apogee_km":538.62009456271,"semimajor_km":6898.1995581115,"source":"CELESTRAK","updated_at":"2026-05-25T13:38:24.896332Z"}}